EXPRESS-AM7 (40505 NORAD) Tracking and Keplerian Element Data

This shows tracking and keplerian element data for the satellite.

Feedback or suggestion? Click here.




ElementValue
Catalog40505
NameEXPRESS-AM7
Epoch Orbit1861
Epoch Day91.71490278
Epoch Year2020
RAAN180.9185
Inclination0.0201
Eccentricity0.0003165
Argument of Perigee178.1291
Mean Anonmoly127.8376
Mean Motion1.00270415
Decay Rate1.48E-06
L11 40505U 15012A 20091.71490278 .00000148 00000-0 10027+1 0 9996
L22 40505 0.0201 180.9185 0003165 178.1291 127.8376 1.00270415 18615

Live tracking and technical data element details for EXPRESS-AM7 (NORAD 40505). EXPRESS-AM7 can be tracked NOW for your location showing map with azimuth and elevation plus other details from your city location.

Track the satellite on the map from your city or location and see movement details for azimuth, elevation, latitude, longitude, range, height, and movement on the map or in text.







IsCatalogInMostPopularTable: catalog: 40505, numindb: 357
Update: records affected: 1



GetName: 40505 EXPRESS-AM7

Hit Count: updated at: Fri, 03 Apr 2020 08:49:51 GMT